Volver al catálogo

ATLAS 5 CENTAUR R/B

ActivoHEO
NORAD 32379·ROCKET BODY·🇺🇸 United States

Lanzado Dec 10, 2007 desde Cape Canaveral Space Force Station

Loading…

Próximos Pases (próximas 24 horas)

TLE

EnvejeciendoSource: Space-Track

Época: Sep 4, 2026, 06:57 UTC

1 32379U 07060B   26247.28980638  .00011434  00000-0  14950-2 0  9996
2 32379  60.7743 142.3983 4825409  12.1954 356.3013  5.92917530146381

Sigue ATLAS 5 CENTAUR R/B en tiempo real con AllMySat

Download on the App Store